Date String (YYYY-MM-DD hh:mm:ss) UTC,Instrument flags,absolute air pressure of the measurement (hPa),sample flow rate (lpm),inlet stack bypass flow (lpm),air temperature of the measurement (°C),ambient temperature measured by the external sensor (°C),aerosol sample conditioner tube jacket temperature (°C),OPC LED temperature (°C),internal box temperature (°C),relative humidity of the measurement (%),span deviation,mass concentration of particles derived from Lorenz-Mie calculation of OPC scattering (μg/m³),mass concentration of particles derived from Lorenz-Mie calculation of OPC scattering (μg/m³),mass concentration of particles derived from Lorenz-Mie calculation of OPC scattering (μg/m³)
DateTimeUTC,F1_M11,P_M11,Q1_M11,Q2_M11,T1_M11,T2_M11,T3_M11,T4_M11,T5_M11,U1_M11,ZSPAN_M11,X0_M11,X2_M11,X1_M11
2023-07-05 13:00:00,SystemResetWarning,0836.2,5.00,000.00,030.5,029.1,000.0,039.0,031.9,30.3,-004.2,0009.57,0006.27,0005.90
2023-07-05 13:01:00,SystemResetWarning,0836.3,5.00,000.00,030.5,029.1,000.0,039.0,032.0,30.3,-004.2,0009.67,0006.30,0005.91
2023-07-05 13:02:00,SystemResetWarning,0836.4,5.00,000.00,030.5,029.1,000.0,039.0,032.0,30.2,-004.0,0009.65,0006.32,0005.92
2023-07-05 13:03:00,SystemResetWarning,0836.4,5.00,000.00,030.5,029.1,000.0,039.0,032.0,30.3,-003.5,0009.59,0006.32,0005.93
2023-07-05 13:04:00,SystemResetWarning,0836.3,5.00,000.00,030.5,029.1,000.0,039.0,032.0,30.3,-003.1,0009.49,0006.28,0005.92
2023-07-05 13:05:00,SystemResetWarning,0836.2,4.99,000.00,030.5,029.1,000.0,039.0,032.0,30.2,-002.5,0009.50,0006.25,0005.91
2023-07-05 13:06:00,SystemResetWarning,0836.1,4.99,000.00,030.5,029.1,000.0,039.0,032.0,30.1,-002.2,0009.52,0006.24,0005.89
2023-07-05 13:07:00,SystemResetWarning,0836.2,5.00,000.00,030.5,029.1,000.0,039.0,032.0,30.1,-002.0,0009.48,0006.19,0005.85
2023-07-05 13:08:00,SystemResetWarning,0836.2,5.00,000.00,030.5,029.1,000.0,039.1,032.0,30.2,-002.0,0009.47,0006.16,0005.83
2023-07-05 13:09:00,SystemResetWarning,0836.2,5.00,000.00,030.5,029.1,000.0,039.1,032.0,30.2,-002.0,0009.52,0006.14,0005.80
2023-07-05 13:10:00,SystemResetWarning,0836.2,5.00,000.00,030.5,029.1,000.0,039.0,032.0,30.2,-002.2,0009.40,0006.10,0005.77
2023-07-05 13:11:00,SystemResetWarning,0836.2,5.00,000.00,030.5,029.1,000.0,039.0,032.0,30.2,-002.0,0009.41,0006.09,0005.75
2023-07-05 13:12:00,SystemResetWarning,0836.3,5.01,000.00,030.5,029.2,000.0,039.1,032.0,30.2,-002.2,0009.39,0006.07,0005.74
2023-07-05 13:13:00,SystemResetWarning,0836.2,5.00,000.00,030.5,029.1,000.0,039.1,032.0,30.2,-002.1,0009.37,0006.05,0005.73
2023-07-05 13:14:00,SystemResetWarning,0836.3,5.00,000.00,030.5,029.1,000.0,039.1,032.0,30.1,-002.2,0009.37,0006.03,0005.71
2023-07-05 13:15:00,SystemResetWarning,0836.2,5.00,000.00,030.5,029.1,000.0,039.1,032.0,30.1,-002.4,0009.49,0006.07,0005.72
2023-07-05 13:16:00,SystemResetWarning,0836.2,5.00,000.00,030.5,029.1,000.0,039.1,032.0,30.1,-002.3,0009.43,0006.08,0005.73
2023-07-05 13:17:00,SystemResetWarning,0836.2,5.00,000.00,030.5,029.1,000.0,039.1,032.0,30.1,-002.6,0009.40,0006.09,0005.75
2023-07-05 13:18:00,SystemResetWarning,0836.2,5.00,000.00,030.5,029.1,000.0,039.1,032.0,30.0,-003.1,0009.41,0006.10,0005.76
2023-07-05 13:19:00,SystemResetWarning,0836.3,5.00,000.00,030.5,029.1,000.0,039.1,032.0,29.9,-003.0,0009.33,0006.08,0005.77
2023-07-05 13:20:00,SystemResetWarning,0836.4,5.00,000.00,030.6,029.2,000.0,039.1,032.0,29.9,-003.0,0009.19,0006.09,0005.80
2023-07-05 13:21:00,SystemResetWarning,0836.5,5.00,000.00,030.5,029.2,000.0,039.1,032.0,29.9,-003.1,0008.78,0006.10,0005.83
2023-07-05 13:22:00,SystemResetWarning,0836.6,5.00,000.00,030.5,029.2,000.0,039.1,032.0,29.9,-003.3,0008.82,0006.12,0005.86
2023-07-05 13:23:00,SystemResetWarning,0836.7,5.00,000.00,030.6,029.2,000.0,039.1,032.0,29.8,-003.4,0008.91,0006.19,0005.90
2023-07-05 13:24:00,SystemResetWarning,0836.6,5.00,000.00,030.6,029.2,000.0,039.1,032.0,29.8,-003.4,0008.87,0006.21,0005.94
2023-07-05 13:25:00,SystemResetWarning,0836.6,5.00,000.00,030.6,029.2,000.0,039.1,032.1,29.8,-003.3,0008.99,0006.27,0005.98
2023-07-05 13:26:00,SystemResetWarning,0836.5,5.00,000.00,030.6,029.2,000.0,039.1,032.1,29.8,-003.2,0008.96,0006.27,0006.00
2023-07-05 13:27:00,SystemResetWarning,0836.5,5.00,000.00,030.6,029.2,000.0,039.1,032.1,29.8,-003.5,0009.00,0006.29,0006.00
2023-07-05 13:28:00,SystemResetWarning,0836.4,5.01,000.00,030.6,029.2,000.0,039.1,032.1,29.7,-003.4,0009.08,0006.33,0006.02
2023-07-05 13:29:00,SystemResetWarning,0836.3,5.00,000.00,030.6,029.2,000.0,039.1,032.1,29.6,-003.1,0009.12,0006.37,0006.06
2023-07-05 13:30:00,SystemResetWarning,0836.2,5.00,000.00,030.6,029.2,000.0,039.1,032.1,29.6,-003.2,0009.21,0006.42,0006.09
2023-07-05 13:31:00,SystemResetWarning,0836.3,5.00,000.00,030.6,029.2,000.0,039.1,032.1,29.8,-003.2,0009.30,0006.46,0006.12
2023-07-05 13:32:00,SystemResetWarning,0836.3,5.00,000.00,030.6,029.2,000.0,039.1,032.1,29.8,-003.3,0009.41,0006.52,0006.13
2023-07-05 13:33:00,SystemResetWarning,0836.3,5.00,000.00,030.6,029.2,000.0,039.2,032.1,29.7,-003.4,0009.50,0006.57,0006.14
2023-07-05 13:34:00,SystemResetWarning,0836.3,5.00,000.00,030.6,029.3,000.0,039.2,032.1,29.8,-003.4,0009.52,0006.54,0006.15
2023-07-05 13:35:00,SystemResetWarning,0836.3,5.00,000.00,030.6,029.3,000.0,039.2,032.1,29.9,-003.6,0009.63,0006.55,0006.16
2023-07-05 13:36:00,SystemResetWarning,0836.2,5.00,000.00,030.6,029.3,000.0,039.2,032.1,29.9,-004.0,0009.60,0006.54,0006.17
2023-07-05 13:37:00,SystemResetWarning,0836.2,5.00,000.00,030.6,028.8,000.0,039.1,032.0,29.9,-004.0,0009.53,0006.55,0006.19
2023-07-05 13:38:00,SystemResetWarning,0836.1,4.99,000.00,030.6,026.8,000.0,039.0,031.9,30.0,-004.0,0009.58,0006.58,0006.22
2023-07-05 13:39:00,SystemResetWarning,0836.1,5.00,000.00,030.5,025.6,000.0,038.9,031.6,30.3,-004.3,0009.62,0006.60,0006.23
2023-07-05 13:40:00,SystemResetWarning,0836.1,5.02,000.00,030.3,025.5,000.0,038.9,031.2,30.6,-004.5,0009.61,0006.60,0006.23
2023-07-05 13:41:00,SystemResetWarning,0836.2,5.01,000.00,030.2,025.9,000.0,038.9,031.1,30.9,-004.4,0009.66,0006.62,0006.24
2023-07-05 13:42:00,SystemResetWarning,0836.3,4.99,000.00,030.1,026.3,000.0,038.9,031.2,31.0,-004.3,0009.69,0006.64,0006.24
2023-07-05 13:43:00,SystemResetWarning,0836.5,5.00,000.00,030.0,026.7,000.0,038.8,031.3,31.0,-004.3,0009.75,0006.64,0006.24
2023-07-05 13:44:00,SystemResetWarning,0836.5,5.01,000.00,030.0,027.1,000.0,038.8,031.3,31.0,-004.1,0009.83,0006.64,0006.27
2023-07-05 13:45:00,SystemResetWarning,0836.5,5.00,000.00,030.0,027.4,000.0,038.8,031.3,31.0,-004.0,0009.78,0006.64,0006.28
2023-07-05 13:46:00,SystemResetWarning,0836.4,4.99,000.00,030.0,027.6,000.0,038.8,031.4,31.1,-004.2,0009.69,0006.65,0006.28
2023-07-05 13:47:00,SystemResetWarning,0836.3,4.99,000.00,030.0,027.8,000.0,038.7,031.4,31.0,-004.4,0009.65,0006.65,0006.27
2023-07-05 13:48:00,SystemResetWarning,0836.2,5.01,000.00,030.0,028.0,000.0,038.7,031.4,31.1,-004.2,0009.71,0006.66,0006.26
2023-07-05 13:49:00,SystemResetWarning,0836.3,5.00,000.00,030.0,028.1,000.0,038.7,031.4,31.2,-004.2,0009.76,0006.65,0006.23
2023-07-05 13:50:00,SystemResetWarning,0836.2,5.00,000.00,030.0,028.3,000.0,038.7,031.5,31.3,-004.1,0009.73,0006.64,0006.23
2023-07-05 13:51:00,SystemResetWarning,0836.2,4.99,000.00,030.0,028.3,000.0,038.7,031.5,31.3,-003.9,0009.71,0006.62,0006.22
2023-07-05 13:52:00,SystemResetWarning,0836.3,4.99,000.00,030.0,028.4,000.0,038.7,031.5,31.4,-003.9,0009.77,0006.64,0006.23
2023-07-05 13:53:00,SystemResetWarning,0836.4,5.00,000.00,030.0,028.5,000.0,038.7,031.5,31.3,-003.9,0009.73,0006.62,0006.23
2023-07-05 13:54:00,SystemResetWarning,0836.4,5.01,000.00,030.0,028.5,000.0,038.7,031.5,31.3,-004.0,0009.73,0006.63,0006.24
2023-07-05 13:55:00,SystemResetWarning,0836.4,5.00,000.00,030.0,028.6,000.0,038.6,031.6,31.3,-004.1,0009.60,0006.63,0006.25
2023-07-05 13:56:00,SystemResetWarning,0836.4,5.00,000.00,030.1,028.6,000.0,038.6,031.6,31.2,-003.9,0009.63,0006.65,0006.25
2023-07-05 13:57:00,SystemResetWarning,0836.3,4.99,000.00,030.1,028.6,000.0,038.6,031.6,31.1,-003.8,0009.69,0006.68,0006.27
2023-07-05 13:58:00,SystemResetWarning,0836.3,4.99,000.00,030.1,028.7,000.0,038.7,031.6,31.0,-003.5,0009.62,0006.67,0006.27
2023-07-05 13:59:00,SystemResetWarning,0836.3,5.00,000.00,030.1,028.7,000.0,038.7,031.6,31.0,-003.2,0009.58,0006.66,0006.28
